Погода в Хорошавке

Россия / Тамбовская область     52°14′00″N   42°27′37″E
темп.,
°C
ветер,
м/с
пор.,
м/с
влажн.,
%
обл.,
%
осадки,
мм/ч
давл.,
гПа
погр.,
м
12 апреля, пн
пн1200:00+6св5996100 0.0 1029223
03:00+5св5995100 0.0 1029194
06:00+6св51194100 0.0 1029223
09:00+12всв697421 0.0 1029332
12:00+19вюв6848100 0.0 1028774
15:00+21вюв6941100 0.0 10271442
18:00+18вюв5104894 0.0 1028253
21:00+13вюв4126427 0.0 1029181
13 апреля, вт
вт1300:00+11вюв4126782 0.0 1029203
03:00+9вюв4116645 0.0 1029171
06:00+8вюв4116866 0.0 1029186
09:00+14юв6104619 0.0 1029444
12:00+19юв68335 0.0 10281027
15:00+20юв78255 0.0 10271892
18:00+17юв4941100 0.0 1027208
21:00+12вюв4105827 0.0 1027153
14 апреля, ср
ср1400:00+10вюв410641 0.0 1026158
03:00+8вюв4107055 0.0 1026165
06:00+7вюв4107055 0.0 1026174
09:00+14вюв694641 0.0 1025422
12:00+18юв673377 0.0 10231133
15:00+19юв672998 0.0 10221716
18:00+16вюв4842100 0.0 1021195
21:00+12вюв4754100 0.0 1021112
15 апреля, чт
чт1500:00+10вюв366093 0.0 102083
03:00+8вюв33650 0.0 102027
06:00+8вюв33702 0.0 102044
09:00+14вюв35530 0.0 1019353
12:00+19вюв45380 0.0 10181327
15:00+21вюв45324 0.0 10162327
18:00+18в364310 0.0 1015132
21:00+14вюв48585 0.0 1015116
16 апреля, пт
пт1600:00+12вюв486756 0.0 1015118
03:00+11юв237322 0.0 101449
06:00+10всв3380100 0.6 101458
09:00+15вюв345791 0.9 1013365
12:00+20вюв453887 0.1 10131259
15:00+21ююв4634100 0.1 10122397
18:00+17ю2454100 0.1 1012105
21:00+12ссв128493 2.7 101436